 HI HI AE C7 88 55 0F 65 FF 0D 00 1D 3F 8E 8E 41 95 92 B0 94 C3 BF C0 C2 BF 
 HI HI AE C7 88 55 14 65 FF 0D 00 1D 93 48 8A 60 95 93 A2 97 C3 BF C0 C2 BF 
 HI HI AE 07 88 55 19 65 FF 0D 00 1D 58 4E 8A 60 94 91 B0 7B C2 BF C0 C2 BF 
 HI HI AE C7 88 55 1F 65 FF 0D 00 1D 5E 3F 8C 42 96 94 B0 77 C2 BF C0 C2 BF 
 HI HI AE 07 88 55 04 65 FF 0D 00 1D 85 79 89 60 94 91 B0 99 C2 BE C0 C1 BF 
 HI HI AE C7 88 51 09 66 FF 0D 00 1D 32 6E 8C 60 93 93 B0 90 C2 BE C0 C1 BF 
 HI HI AE C7 88 55 0F 67 FF 0D 00 1D 8E 39 87 44 96 93 B0 7C C2 BF C0 C1 BF 
 HI HI AE C7 88 51    68 FF 0D 00 1D 40 81 8F 40 95 92 B0 81 C2 BE C0 C1 BF 
 HI HI AE C7 88 51 19 69 FF 0D 00 1D 59 2F 8C 61 95 91 B0 5F C2 BE C0 C1 BF 
 HI HI AE C7 88 51 1F 69 FF 1A 00 1D 6F 58 7D 56 95 92 B0 89 C1 BE C0 C0 BF 
 HI HI AE 07 88 51 04 6A FF 0D 00 1D 30 4B 8F 44 96 94 B0 96 C1 BE C0 C0 BF 
 HI HI AE C7 88 51 09 6B FF 0D 00 1D 7A 26 82 60 93 90 9F 8A C1 BE C0 C0 BF 
 HI HI AE C7 88 51 0E 6C FF 0D 07 1D 32 50 7D 61 94 91 B0 79 C1 BE BF C0 BF 
 HI HI AE C7 88 51 19 6D 1E 0D 00 1D 4C 35 83 60 94 91 B0 8B C1 BE BF BF BF 
 HI HI AE 07 88 55 1E 6D FF 0D 00 1D 4A 21 85 60 93 91 B0 8C C0 BE BF BF BF 
 HI HI AE C7 88 51 03 6E 05 0D 09 1D 5E 1D 71 4E 95 83 B1 7C C0 BE BF BF BF 
 HI HI AE C7 88 51 08 6E FF 0D 00 1D 
    
 3)テレメトリ換算値例  
  
  上記JDディジタルモードテレメトリのAS14456P 22Jul99の最初の
 ブロックの換算値例
  
 テレメトリ   内   容	              換算値   単 位 
 F1ー12	磁気センサーX軸	=	20098.0	nT
 F1ー13	磁気センサーZ軸	=	50980.4	nT
 F0ー15	太陽電池発生電流	=	 1372.6	mA
 F0ー16	B充放電電流	        =	  706.4	mA
 F0ー17	B端子電圧	        =	   16.1	V
 F0ー18	B中間端子電圧	        =	    7.0	V
 F0ー19	バス電圧	        =	   15.7	V
 F0ー20	+5安定化電圧	        =	    5.1	V
 F0ー21	ー5V安定化電圧	        =	   -4.8	V
 F0ー22	+10V安定化電圧	=	   10.1	V
 F0ー23	JTA出力電力	        =	  -91.6	mW
 F0ー24	JTD出力電力	        =	 1352.7	mW
 F0ー25	Bセル温度	        =	    8.5	℃
 F0ー26	構体温度ー1	        =	    7.3	℃
 F0ー27	構体温度ー2	        =	    9.3	℃
 F0ー28	構体温度ー3	        =	    8.9	℃
 F0ー29	構体温度ー4	        =	    7.3	℃
 F1ー18	太陽電池パネル温度ー1	=	   29.3	℃
 F1ー19	太陽電池パネル温度ー2	=	   15.7	℃
 F1ー24	太陽電池パネル温度ー3	=	    8.9	℃
 F1ー23	JTD  Tr温度	=	   12.0	℃
 
  *計算処理は OFFICE 97 を使用.
  
 ===================================================================================
  4)FO−20(ふじ2号)のCWテレメトリは6月15日(火)18:56(JST)の
     パスではテレメトリーが単一トーンの連続音から唸りを伴った連続音、さらにゆらぎの
     ある信号になり、いままでより若干信号が弱くなっていました.

 -----------------------------    FO-20 軌道要素   ----------------------------------
 
 ■ 軌道要素1 :出典は「ふじ3号」に同じ.
  
  FO-20
 1 20480U 90013C   99196.09372517  .00000016  00000-0  98819-4 0 01678
 2 20480 099.0215 025.4998 0541214 101.3492 264.8891 12.83254410441913
 
 ■ 軌道要素2 :出典は「ふじ3号」に同じ.
               
  Satellite: FO-20
 Catalog number: 20480
 Epoch time:      99196.09372517
 Element set:    0167
 Inclination:      099.0215 deg
 RA of node:       025.4998 deg
 Eccentricity:    0.0541214
 Arg of perigee:   101.3492 deg
 Mean anomaly:     264.8891 deg
 Mean motion:   12.83254410 rev/day
 Decay rate:        1.6e-07 rev/day^2
 Epoch rev:           44191
 Checksum:              303
 
   ==================================================================================

 5)JARL のホームページに運用予定が記載されていましたのでご紹介します.
       ( http://www.jarl.or.jp/Japanese/3_Fuji/uy.htm )

        ■ ふじ3号/FO−29 ■  
  
   *** 運用予定について ***
    
   7月21日 〜 7月26日     デジタル系1200bpsメールボックス運用
   7月26日 〜 8月09日     アナログ系運用
   
 なお,運用予定は都合により変更することがありますのでご了承願います.

 照会先 : lab@jarl.or.jp

 最新の情報はテレホンサービス(:03−3942−1000)をお聞きください。
   
  以後の運用に付きましては8月10日(火)にお知らせいたします。

        ■ ふじ2号/FO−20 ■      
            「ふじ2号」 現況                                                                                               
   JAS-1b/FO-20(ふじ2号)の不具合発生について
    JAS-1b(ふじ2号)のCWテレメトリ信号に,1997年10月12日12時
 (JST)の日本上空通過時,3桁の数字が繰り返されるはずが3個の長音の
  繰り返しとなっているという異常が発見されました。この不具合は次の通過時
  からは回復していましたが13日15時20分の通過時に再び観測されました。
  衛星のアナログ系中継モード動作は異常が無く,正常時のテレメトリ内容からは
  衛星の動作に異常は認められません。従って,直ちに衛星のミッションに影響す
  ることは無いと予想されますので,当面はアナログ系中継モードを継続します。
  衛星は既に打ち上げてから7年8ヶ月を経ておりますので,今後は監視を強化す
  る予定です。アマチュア各位のレポートをお待ちします.   
  
  以上  http://www.jarl.or.jp/Japanese/3_Fuji/fuji.htm
                                           
   =============   JAS-2 (ふじ3号)と現在までの情報   ===========
  
  A.電話によるふじ3号の運用情報
      社団法人日本アマチュア連盟によるサービス
           TEL .   03− 3942 − 1000
  B.アマチュア無線FAXサービス
      JARLによるふじ3号の軌道情報(オービットカレンダー)
         FAX No.  03− 3233 −0055
  C.WWWブラウザで情報を簡単に見れる人のためにJAS−2
     ふじ3号の衛星としての運用されるまでの名前)の概要、打ち上げ
     までの状況、運用中における状況を説明したホームページを紹介し
     ておきます.
     社団法人日本アマチュア無線連盟(JARL)のホームページ

          http://www.jarl.or.jp/Japanese/3_Fuji
 
     宇宙開発事業団(NASDA)ホームページ 
          http://www.nasda.go.jp/
         打上げ衛星 :地球観測プラットフォーム技術衛星(ADEOS) 
                       アマチュア衛星3号(JAS-2)
          http://yyy.tksc.nasda.go.jp/Home/Press/Press-j/jas-2_j.html        

  D.JAMSATによる軌道情報の活用
        JAMSATのホームページまたはjamsat−kepsの軌道要素より
      衛星の軌道情報を得る.
     JAMSATホームページ
               URL    http://www.jamsat.or.jp
       上記ホームページでは各地で行われるアマチュア通信衛星に関する
      ミューティングのお知らせや世界のアマチュア衛星に関する情報が
      満載されています.
   
 =========================================================================
       JAMSATのメンバーのご協力によりJH6MME(高山 秀造)が
    執筆・編集を担当しております.ご指摘の意見、疑問やこのようにしたら
    というアイデアがありましたら小さなことでもかまいませんので気軽に下
    記アドレスまでご連絡ください.jamsat−newsからjas2
    infoへの転載をJH4PHW局坂井さんに担当して頂いております.
                    E-mail : jh6mme@jamsat.or.jp : jh4phw@jamsat.or.jp
 ===============================   END  ===============================